Location: Newark
(41.9364°N, 2.8061°E)
Time: 01:29:42
(UTC+00:00)

Transit 2A - Visible Passes

Search period start: 29 February 2020 00:00
Search period end: 10 March 2020 00:00
Orbit: 599 x 959 km, 66.7° (Epoch: 28 February)

Date Brightness Start Highest point End Pass type
(mag) Time Alt. Az. Time Alt. Az. Time Alt. Az.
29 Feb 7.3 18:42:37 10° N 18:46:38 22° NE 18:48:33 19° ENE visible
29 Feb 6.8 20:24:57 10° NW 20:29:04 52° WNW 20:29:04 52° WNW visible
01 Mar 7.6 18:08:57 10° N 18:12:16 17° NE 18:15:45 10° E visible
01 Mar 6.0 19:50:47 10° NNW 19:56:03 90° NE 19:56:36 74° SSE visible
01 Mar 8.9 21:36:16 10° W 21:37:09 12° W 21:37:09 12° W visible
02 Mar 6.1 19:16:41 10° NNW 19:21:54 64° ENE 19:24:16 34° SE visible
02 Mar 8.3 21:00:56 10° WNW 21:04:42 19° WSW 21:04:49 19° WSW visible
03 Mar 6.4 18:42:41 10° NNW 18:47:41 45° NE 18:52:07 15° ESE visible
03 Mar 7.8 20:26:11 10° NW 20:30:43 28° WSW 20:32:41 23° SW visible
04 Mar 6.9 18:08:46 10° NNW 18:13:27 33° NE 18:18:33 10° ESE visible
04 Mar 7.3 19:51:43 10° NW 19:56:42 41° WSW 20:00:47 17° S visible
05 Mar 6.7 19:17:24 10° NW 19:22:38 59° WSW 19:28:23 10° SSE visible
06 Mar 6.2 18:43:11 10° NNW 18:48:31 84° WSW 18:54:24 10° SSE visible
06 Mar 9.0 20:29:04 10° W 20:31:05 12° WSW 20:33:09 10° SW visible
07 Mar 6.2 18:09:05 10° NNW 18:14:22 69° ENE 18:20:13 10° SE visible
07 Mar 8.7 19:53:30 10° WNW 19:57:09 18° WSW 20:00:59 10° SSW visible
08 Mar 8.3 19:18:42 10° NW 19:23:11 26° WSW 19:27:59 10° SSW visible
09 Mar 7.7 18:44:10 10° NW 18:49:09 38° WSW 18:54:34 10° S visible
